Location: Góry Miechowskie
(50.3599°N, 20.1803°E)
Time: 14:48:13
(UTC+00:00)

deb Explorer IX - Pass Details

Date: 17 September 2024
Orbit: 504 x 830 km, 38.7° (Epoch: 04 October)

Event Time Altitude Azimuth Distance (km) Brightness Sun altitude
Rises 17:54:28 0° 225° (SW) 3,385 ? -11.3°
Reaches altitude 10° 17:57:34 10° 210° (SSW) 2,473 ? -11.8°
Maximum altitude 18:01:52 21° 164° (SSE) 1,832 ? -12.4°
Enters shadow 18:04:35 16° 130° (SE) 2,111 ? -12.8°
